Portada
METAR-TAF:

METAR-TAF

Aeropuertos :

RAF

Boulmer, Inglaterra

latitud: 55-25-19N, longitud: 1-36-12W, altitud: 24 m

Observación

El informe se hizo hace 38 minutos, a las 20:20 UTC
Viento 3 kt del sur
Temperatura 14°C
Humedad 94%
Presión 1007 hPa
Visibilidad: 8000 m

METAR: EGQM 152020Z AUTO 18003KT 8000 SCT003/// OVC160/// 14/13 Q1007

Hora: 21:58 (20:58 UTC)


TAF: falta

Observaciones y pronósticos meteorológicos de más de 4000 aeropuertos (mensajes METAR y TAF).

Los puntos amarillos y rojos representan las estaciones disponibles.

Ponga el ratón en el punto deseado para ver el nombre de la estación.

Haga clic para ver las observaciones y los pronósticos meteorológicos.

Para cambiar el mapa : haga clic en los botones verdes con una cruz de color negro para hacer un zoom, en el botón verde con un guión para alejar o en las flechas verdes para mapas adyacentes.


METAR-TAF: